Location: 22
(39.7117°N, 89.5929°W)
Time: 09:49:24
(UTC-06:00)

S-56A Canister/Altair - Visible Passes

Search period start: 29 January 2023 00:00
Search period end: 08 February 2023 00:00
Orbit: 639 x 2493 km, 38.9° (Epoch: 28 January)

Date Brightness Start Highest point End Pass type
(mag) Time Alt. Az. Time Alt. Az. Time Alt. Az.
29 Jan 10.7 18:27:54 10° W 18:36:20 35° SSW 18:47:46 10° SSE visible
29 Jan 11.7 20:37:57 10° WSW 20:41:10 11° SW 20:44:35 10° SSW visible
30 Jan 10.6 17:55:08 10° W 18:03:11 38° SSW 18:14:25 10° SSE visible
30 Jan 11.7 20:03:23 10° WSW 20:08:01 13° SW 20:13:09 10° SSW visible
31 Jan 11.6 19:29:33 10° WSW 19:34:53 15° SW 19:41:01 10° SSW visible
01 Feb 11.5 18:56:04 10° WSW 19:01:46 16° SW 19:08:34 10° S visible
02 Feb 11.5 18:22:51 10° WSW 18:28:42 18° SW 18:35:52 10° S visible
03 Feb 11.4 17:49:47 10° WSW 17:55:40 20° SW 18:03:02 10° S visible
